Temperature
5 5 4 4 4 4 4 3 3 3 3 4 3 4 4 4 4 4 4 4 4 4 4 4 4 4 4 4 4 4 4 4 4 4 4 4 4 4
4 4 4 4 4 3 3 3 3 2 2 3 3 3 3 3 3 3 3 3 3 3 4 3 3 3 3 3 3 3 4 4 4 4 4 4 4 4
4 3 3 3 3 3 3 3 2 2 2 2 2 3 3 3 3 3 3 3 3 3 3 3 3 3 3 3 3 3 3 3 3 3 3 3 3 3
3 3 3 2 2 2 2 2 2 2 1 2 2 2 2 2 2 2 2 2 2 2 2 2 2 2 2 2 2 2 2 2 3 3 3 3 3 3
2 2 2 2 2 2 2 2 1 1 1 1 1 1 1 1 1 2 2 2 2 2 2 2 2 2 2 2 2 2 2 2 2 2 2 2 2 2
2 2 2 2 2 1 1 1 1 1 1 0 0 0 1 1 1 1 1 1 1 1 1 1 1 1 1 1 1 1 1 1 1 2 2 1 1 2
1 1 1 1 1 1 1 0 0 0 0 0 -0 -0 -0 0 0 0 0 0 1 1 1 1 1 1 1 1 1 1 1 1 1 1 1 1 1 1
1 1 1 1 0 0 0 -0 -0 -0 -0 -0 -1 -1 -0 -0 -0 -0 -1 -1 -1 -0 -0 0 0 0 0 0 0 0 0 0 0 0 0 1 1 1
0 0 0 0 -0 -0 -0 -1 -1 -1 -1 -1 -1 -1 -1 -1 -1 -1 -1 -1 -1 -1 -1 -1 -0 -0 -0 -0 -0 -0 -0 -0 0 -0 -0 -0 0 0
-1 -1 -1 -0 -1 -1 -1 -1 -1 -1 -1 -1 -1 -1 -1 -1 -1 -1 -1 -2 -1 -1 -1 -1 -1 -1 -0 -0 -1 -1 -1 -1 -1 -1 -1 -1 -1 -0
-1 -1 -1 -1 -1 -1 -1 -1 -1 -1 -1 -1 -1 -2 -2 -2 -2 -2 -2 -2 -2 -2 -2 -2 -2 -1 -1 -1 -1 -1 -1 -1 -1 -1 -1 -1 -1 -1
-2 -2 -2 -2 -2 -2 -2 -2 -2 -2 -2 -2 -2 -2 -2 -2 -2 -2 -2 -3 -3 -3 -3 -3 -3 -3 -2 -2 -1 -2 -2 -1 -2 -2 -2 -2 -2 -2
-3 -3 -2 -2 -2 -2 -2 -2 -2 -2 -2 -2 -2 -2 -2 -2 -2 -2 -3 -3 -3 -3 -3 -4 -3 -3 -4 -3 -2 -2 -2 -2 -2 -2 -2 -2 -2 -2
-3 -3 -3 -3 -3 -3 -3 -3 -3 -3 -3 -3 -3 -3 -3 -3 -3 -3 -3 -3 -4 -4 -4 -4 -4 -4 -4 -4 -4 -3 -3 -3 -3 -3 -3 -2 -2 -3
-4 -4 -4 -4 -4 -3 -3 -3 -3 -3 -3 -3 -3 -3 -3 -3 -3 -3 -4 -4 -4 -4 -4 -4 -5 -5 -5 -5 -5 -4 -4 -3 -3 -3 -3 -3 -3 -3
-4 -4 -4 -4 -4 -4 -4 -4 -4 -4 -4 -4 -4 -4 -4 -4 -4 -4 -4 -4 -5 -5 -5 -5 -5 -5 -5 -5 -5 -5 -5 -5 -4 -4 -4 -4 -4 -4
-5 -5 -5 -5 -5 -5 -5 -4 -4 -4 -5 -5 -5 -4 -4 -5 -5 -5 -5 -5 -5 -5 -5 -5 -5 -5 -5 -5 -5 -5 -5 -5 -5 -5 -5 -4 -4 -4
-5 -5 -5 -5 -5 -5 -5 -5 -5 -5 -5 -5 -5 -5 -5 -5 -5 -5 -5 -6 -6 -6 -5 -5 -6 -5 -5 -5 -5 -5 -5 -5 -5 -5 -5 -5 -5 -4
-5 -5 -6 -6 -6 -6 -6 -6 -6 -6 -6 -6 -6 -6 -6 -6 -6 -6 -6 -6 -6 -6 -6 -6 -6 -6 -6 -6 -6 -6 -6 -6 -6 -6 -6 -6 -5 -5
-6 -6 -6 -6 -6 -6 -6 -6 -6 -6 -6 -6 -6 -6 -6 -6 -6 -6 -6 -6 -6 -6 -6 -6 -6 -7 -7 -7 -7 -6 -6 -6 -6 -6 -6 -6 -6 -5
-6 -6 -6 -6 -6 -6 -6 -6 -6 -6 -7 -7 -7 -7 -7 -7 -7 -7 -7 -7 -7 -7 -7 -7 -7 -7 -7 -7 -7 -7 -6 -7 -7 -7 -7 -7 -6 -6
-6 -6 -6 -7 -7 -7 -7 -7 -7 -7 -7 -7 -7 -7 -7 -7 -7 -7 -7 -7 -7 -7 -7 -7 -7 -7 -7 -7 -8 -7 -7 -7 -7 -7 -7 -7 -7 -7
-7 -7 -7 -7 -7 -7 -7 -7 -7 -7 -7 -7 -7 -7 -7 -7 -7 -8 -8 -8 -8 -8 -8 -8 -8 -8 -8 -8 -8 -8 -8 -7 -7 -7 -7 -7 -7 -7
Wind_Speed
2 2 2 2 2 2 2 3 3 3 4 3 2 3 4 5 7 6 6 9 10 11 11 11 10 10 10 10 11 11 11 11 11 11 12 12 12 12
2 2 2 2 2 2 2 3 3 4 4 3 3 3 3 5 7 7 7 10 10 11 11 11 10 10 10 10 11 11 11 11 11 11 12 12 12 13
2 3 3 2 2 2 2 2 3 3 5 5 3 3 3 3 5 6 7 7 8 10 11 10 10 10 10 10 11 11 11 11 11 11 12 12 12 12
4 3 4 3 3 3 3 3 3 4 4 6 4 3 3 3 3 4 5 6 7 9 10 10 10 10 10 10 10 11 11 11 11 11 12 12 12 12
4 4 4 4 4 4 4 4 4 4 3 5 5 3 3 3 3 4 4 4 6 8 9 9 9 10 10 10 10 10 11 11 11 11 11 11 12 12
4 5 5 5 5 5 5 5 4 4 4 4 5 4 3 3 2 3 4 3 4 5 7 8 8 9 9 10 10 10 10 10 10 10 11 11 11 11
4 5 5 6 7 5 5 4 4 4 4 4 5 4 4 3 3 3 5 4 4 3 3 4 4 4 6 9 10 10 10 10 9 10 10 10 10 10
5 5 5 6 7 8 9 8 7 5 5 5 5 6 6 5 4 4 4 4 4 2 3 5 3 5 5 6 8 9 9 10 9 9 9 10 9 9
5 5 5 5 5 4 7 8 8 9 9 6 7 7 6 5 5 5 5 5 6 3 2 5 3 5 5 7 10 9 9 9 9 9 9 9 9 9
5 5 5 5 5 5 5 5 5 6 7 6 6 6 6 5 5 5 5 5 4 3 3 4 4 5 5 6 9 9 9 9 9 9 9 9 9 10
5 5 5 5 8 8 5 5 6 5 7 8 8 8 8 8 5 3 3 3 4 3 2 2 3 4 4 4 6 8 8 8 8 8 9 9 9 9
4 5 7 7 8 8 5 5 6 6 4 4 4 5 4 5 6 4 3 4 4 3 2 2 2 2 3 3 3 4 5 7 8 8 9 9 8 6
4 4 5 8 9 9 6 5 7 5 3 3 3 3 3 2 2 3 3 4 4 4 2 1 2 2 3 3 3 3 3 4 5 6 7 8 8 6
5 4 5 9 9 8 6 6 7 4 2 2 3 3 3 3 3 3 4 4 5 5 5 3 3 3 3 4 4 3 3 4 3 3 4 7 7 7
4 7 8 8 7 5 6 6 4 2 2 3 4 4 3 3 3 3 3 3 3 4 4 4 4 3 4 4 4 3 3 3 3 3 3 3 4 4
4 6 7 6 5 5 4 3 2 3 3 4 4 3 3 3 3 3 3 2 3 3 3 4 4 4 4 4 4 5 4 3 3 3 3 4 4 4
3 2 2 2 2 2 2 2 2 2 3 3 3 3 3 3 3 2 2 2 3 3 3 2 2 3 4 4 4 5 4 4 4 3 3 4 4 4
3 2 2 2 3 3 3 3 3 3 3 3 3 3 4 3 3 2 2 3 3 3 3 2 2 2 2 3 6 5 4 4 3 3 3 4 5 4
3 3 3 3 3 3 3 3 3 3 3 3 3 3 3 3 3 3 3 3 3 3 3 2 2 2 3 4 3 4 4 3 3 3 4 4 5 5
3 3 4 4 3 3 3 3 3 3 3 3 3 3 3 3 3 3 3 3 3 3 3 2 3 3 4 4 4 3 5 4 4 4 4 4 5 6
4 4 4 4 4 4 4 3 4 4 4 3 3 4 3 3 4 4 3 5 4 3 4 4 4 5 3 2 3 3 3 6 6 5 4 4 4 4
4 4 4 4 4 4 4 4 4 4 4 4 4 4 3 3 4 4 3 3 3 3 4 3 3 2 2 3 5 5 5 4 6 8 8 7 4 3
4 4 4 4 4 4 4 4 4 4 4 4 4 4 3 4 3 3 3 3 3 3 3 3 2 2 3 3 4 4 5 5 4 4 5 7 8 10
Wind_Direction
224 229 240 238 228 232 225 223 230 265 272 252 262 264 285 295 299 304 298 298 296 291 289 286 283 282 281 280 281 283 285 284 279 278 277 278 276 277
235 226 244 258 253 248 235 237 237 246 265 266 259 275 283 294 300 301 294 298 295 291 288 284 281 279 279 279 279 280 280 282 278 278 278 278 281 276
241 237 247 252 249 255 252 241 242 239 259 278 273 283 275 272 294 297 294 290 290 289 288 285 284 282 282 280 278 279 279 280 278 276 278 282 282 284
234 236 249 253 250 251 249 246 243 240 249 272 281 281 276 275 279 288 297 296 291 291 291 287 286 284 283 283 282 280 278 277 277 276 275 278 282 283
236 233 240 239 249 251 248 246 246 254 253 263 276 279 282 283 290 292 287 287 292 293 295 290 289 289 288 287 285 284 280 276 274 274 273 274 278 281
238 236 237 234 242 245 248 243 243 250 256 260 271 279 279 279 272 282 296 289 288 294 293 292 293 293 288 288 288 284 280 279 277 278 277 274 274 276
242 242 243 249 253 253 253 244 244 251 255 260 270 278 274 270 266 263 278 291 286 268 280 287 292 290 289 288 287 285 283 285 287 285 285 281 277 276
248 251 253 252 260 268 269 263 254 249 250 253 265 262 263 259 262 261 268 287 285 261 269 283 273 274 276 274 282 285 284 286 286 286 285 284 280 280
246 251 262 262 268 261 270 273 268 267 261 255 253 255 257 251 251 258 256 263 266 263 276 278 269 269 272 273 278 281 284 284 282 282 285 286 286 287
243 241 246 254 259 260 258 262 259 263 265 260 251 253 257 251 242 247 256 270 273 265 242 268 271 267 278 275 274 276 281 281 280 281 283 288 291 292
252 248 248 250 266 272 264 261 269 270 275 270 268 267 268 265 259 253 256 273 278 266 235 253 274 281 276 271 280 281 282 283 284 286 287 289 294 294
259 257 260 264 268 272 262 255 265 271 275 282 280 277 273 265 264 246 238 256 274 268 231 236 272 302 294 279 277 289 288 287 289 288 288 290 294 293
260 261 263 271 273 277 276 260 269 280 272 270 280 284 282 270 262 249 235 241 252 255 242 239 261 265 265 287 294 283 281 284 288 285 288 291 290 285
258 258 264 273 278 280 283 281 287 299 279 268 270 271 268 267 268 260 258 255 251 252 247 234 247 247 260 276 280 290 288 280 274 279 288 298 293 289
264 271 278 281 285 282 286 287 293 289 267 268 265 268 267 266 268 274 279 282 289 280 258 241 239 249 248 257 272 281 292 287 271 269 279 284 283 284
279 278 281 283 288 288 287 292 286 263 265 261 269 273 273 267 267 268 274 285 290 292 286 266 246 238 252 256 258 271 268 272 291 287 284 281 281 272
275 270 268 276 280 280 280 279 277 283 287 279 274 277 275 271 271 265 264 270 267 272 282 285 276 264 247 245 258 262 263 267 266 279 287 286 272 262
283 270 265 264 269 276 280 284 277 273 273 273 268 266 267 268 270 269 264 260 265 264 261 266 279 309 306 274 235 248 260 267 274 271 264 277 285 276
266 259 259 258 263 267 267 270 275 272 269 266 266 266 268 268 265 264 259 261 263 265 264 260 257 256 279 289 282 236 244 272 283 282 269 262 273 284
257 255 256 256 257 258 260 267 272 272 269 266 264 263 262 266 266 265 263 265 265 269 272 265 249 240 245 261 272 276 266 260 266 274 278 275 275 284
260 257 253 253 253 252 255 259 263 266 266 264 261 258 256 260 262 262 263 270 273 265 266 268 264 274 268 267 277 279 276 275 269 266 270 279 286 288
261 257 255 254 251 250 254 258 262 264 264 263 259 257 254 253 254 256 258 261 264 264 268 275 281 284 262 256 270 280 289 298 300 293 277 262 255 257
259 257 255 252 251 250 250 252 255 258 259 262 261 259 256 256 253 252 253 254 260 265 270 277 284 277 264 258 267 278 287 297 306 307 297 288 275 272
Height
1490 1491 1491 1491 1492 1492 1492 1491 1491 1489 1487 1487 1488 1488 1488 1488 1487 1486 1485 1485 1484 1484 1483 1483 1482 1482 1481 1481 1480 1480 1480 1480 1479 1479 1479 1478 1479 1478
1486 1487 1487 1487 1487 1487 1487 1487 1487 1486 1484 1483 1483 1484 1483 1483 1483 1482 1481 1480 1480 1479 1478 1478 1477 1476 1476 1475 1475 1475 1475 1474 1474 1473 1473 1473 1472 1472
1482 1482 1482 1483 1482 1483 1483 1483 1482 1482 1480 1479 1479 1479 1479 1478 1478 1477 1476 1475 1474 1474 1473 1472 1472 1471 1470 1470 1470 1470 1469 1469 1468 1468 1467 1467 1466 1466
1478 1478 1478 1478 1478 1478 1478 1478 1478 1477 1476 1474 1474 1474 1474 1473 1472 1472 1471 1470 1469 1468 1468 1467 1466 1466 1465 1464 1464 1463 1463 1462 1462 1462 1461 1461 1460 1460
1473 1473 1473 1473 1473 1473 1472 1472 1472 1472 1472 1470 1468 1469 1468 1468 1467 1466 1465 1464 1464 1463 1462 1461 1461 1460 1459 1458 1458 1457 1457 1456 1456 1455 1455 1455 1454 1454
1468 1468 1468 1468 1468 1468 1467 1467 1467 1467 1466 1466 1464 1463 1463 1463 1462 1461 1459 1459 1458 1457 1456 1456 1455 1454 1453 1453 1452 1451 1451 1450 1450 1449 1449 1449 1448 1448
1463 1463 1463 1463 1463 1463 1462 1462 1462 1462 1461 1461 1459 1458 1457 1457 1457 1456 1455 1454 1453 1452 1451 1450 1449 1448 1448 1447 1446 1445 1445 1445 1444 1443 1443 1443 1442 1442
1457 1458 1458 1458 1457 1457 1457 1457 1457 1457 1456 1456 1454 1453 1453 1453 1452 1451 1450 1449 1447 1447 1446 1445 1444 1442 1442 1441 1440 1440 1439 1439 1438 1438 1437 1437 1436 1436
1452 1452 1452 1452 1452 1452 1452 1452 1452 1452 1452 1451 1450 1449 1448 1448 1447 1446 1445 1444 1443 1442 1441 1438 1438 1437 1436 1435 1435 1434 1434 1433 1432 1432 1432 1431 1431 1430
1447 1447 1447 1446 1446 1446 1446 1446 1446 1446 1446 1445 1445 1444 1444 1443 1442 1442 1440 1439 1438 1437 1436 1433 1432 1431 1431 1430 1429 1429 1428 1427 1427 1426 1426 1426 1425 1424
1442 1442 1442 1441 1441 1441 1441 1440 1439 1439 1440 1439 1439 1438 1438 1438 1437 1437 1435 1434 1432 1431 1431 1429 1427 1426 1425 1424 1424 1423 1423 1422 1421 1421 1420 1420 1419 1419
1436 1437 1437 1437 1437 1436 1436 1435 1434 1433 1433 1433 1433 1433 1432 1432 1432 1432 1431 1429 1427 1426 1425 1425 1423 1422 1420 1418 1419 1418 1417 1417 1416 1415 1415 1414 1414 1413
1431 1431 1431 1432 1431 1431 1431 1430 1429 1429 1428 1427 1427 1427 1427 1427 1427 1427 1426 1425 1423 1421 1421 1421 1419 1418 1417 1414 1413 1413 1412 1411 1410 1410 1409 1409 1408 1408
1426 1426 1426 1426 1426 1426 1425 1425 1424 1424 1423 1422 1422 1421 1421 1421 1421 1421 1420 1419 1418 1417 1416 1416 1414 1413 1412 1410 1408 1408 1407 1407 1406 1405 1404 1404 1403 1403
1422 1421 1421 1421 1421 1421 1420 1420 1419 1418 1418 1417 1417 1417 1417 1416 1416 1415 1414 1414 1413 1412 1411 1411 1410 1409 1408 1406 1404 1403 1402 1401 1401 1400 1399 1398 1398 1398
1417 1417 1417 1416 1416 1415 1415 1415 1414 1414 1413 1413 1412 1412 1412 1411 1411 1410 1409 1408 1407 1406 1406 1406 1405 1404 1403 1402 1401 1399 1398 1397 1396 1395 1394 1394 1393 1393
1413 1412 1412 1411 1411 1410 1410 1410 1409 1409 1409 1408 1408 1407 1407 1406 1406 1405 1405 1404 1403 1402 1401 1401 1401 1400 1399 1398 1396 1395 1394 1393 1392 1391 1389 1388 1388 1388
1409 1407 1407 1406 1406 1406 1405 1405 1405 1404 1404 1404 1403 1403 1402 1402 1401 1401 1400 1400 1399 1398 1397 1397 1396 1395 1394 1393 1393 1391 1389 1388 1387 1387 1385 1384 1382 1383
1404 1403 1403 1402 1402 1402 1401 1401 1400 1400 1400 1399 1399 1398 1398 1397 1397 1396 1396 1395 1395 1394 1393 1393 1392 1391 1389 1387 1387 1388 1386 1384 1383 1382 1381 1380 1378 1377
1399 1399 1398 1398 1398 1397 1397 1396 1396 1396 1395 1395 1394 1394 1394 1393 1392 1392 1391 1391 1390 1390 1389 1388 1388 1387 1386 1385 1383 1382 1383 1381 1379 1377 1376 1374 1373 1373
1395 1394 1394 1394 1393 1393 1393 1392 1392 1391 1391 1390 1390 1390 1389 1389 1388 1388 1387 1387 1387 1386 1385 1384 1384 1384 1382 1381 1379 1377 1377 1377 1376 1374 1372 1370 1368 1367
1391 1390 1390 1390 1389 1389 1388 1388 1387 1387 1387 1386 1385 1385 1385 1384 1384 1383 1383 1383 1382 1382 1381 1380 1380 1379 1378 1377 1375 1373 1372 1372 1371 1370 1369 1368 1366 1363
1387 1386 1386 1386 1385 1385 1384 1384 1383 1383 1382 1382 1381 1381 1380 1380 1380 1379 1379 1379 1378 1377 1377 1376 1375 1375 1374 1373 1371 1370 1368 1367 1366 1365 1364 1363 1362 1361